This is the latest recevied weather packets stored in our database for station/object K8GLX. If no packets are shown the sender has not sent any weather packets the latest 10 day(s).
| Time | Temp. | Humidity | Pressure | Rain* | Wind** | Luminosity | Snow |
|---|---|---|---|---|---|---|---|
| 1777660029 | 4.44° C | 94% | 1013.1 hPa | 0.51 mm | - | 164 W/m² | - |
| 1777659734 | 4.44° C | 94% | 1013.4 hPa | 0.51 mm | - | 173 W/m² | - |
| 1777659429 | 4.44° C | 93% | 1013.1 hPa | 0.51 mm | - | 202 W/m² | - |
| 1777659135 | 4.44° C | 93% | 1012.9 hPa | 0.51 mm | - | 138 W/m² | - |
| 1777658829 | 4.44° C | 93% | 1012.9 hPa | 0.51 mm | - | 147 W/m² | - |
| 1777658534 | 4.44° C | 93% | 1013 hPa | 0.51 mm | - | 102 W/m² | - |
| 1777658229 | 5° C | 93% | 1013 hPa | 0.51 mm | - | 73 W/m² | - |
| 1777657934 | 5° C | 93% | 1013 hPa | 0.51 mm | - | 99 W/m² | - |
| 1777657629 | 5° C | 93% | 1012.8 hPa | 0.51 mm | - | 135 W/m² | - |
| 1777657335 | 5° C | 92% | 1012.9 hPa | 0.51 mm | - | 145 W/m² | - |
| 1777657028 | 5° C | 92% | 1012.6 hPa | 0.51 mm | - | 149 W/m² | - |
| 1777656734 | 5° C | 92% | 1012.7 hPa | 0.51 mm | - | 178 W/m² | - |
| 1777656429 | 5° C | 93% | 1012.7 hPa | 0.51 mm | - | 129 W/m² | - |
| 1777656134 | 5° C | 93% | 1012.8 hPa | 0.51 mm | - | 144 W/m² | - |
| 1777655829 | 5° C | 93% | 1012.7 hPa | 0.76 mm | - | 173 W/m² | - |
| 1777655534 | 5° C | 93% | 1012.6 hPa | 1.02 mm | - | 161 W/m² | - |
| 1777655229 | 5.56° C | 93% | 1012.8 hPa | 1.02 mm | - | 112 W/m² | - |
| 1777654935 | 5° C | 93% | 1012.6 hPa | 1.02 mm | - | 130 W/m² | - |
| 1777654629 | 5.56° C | 93% | 1012.8 hPa | 1.27 mm | - | 131 W/m² | - |
| 1777654334 | 5.56° C | 93% | 1012.6 hPa | 1.52 mm | - | 131 W/m² | - |
| 1777654029 | 5.56° C | 93% | 1012.7 hPa | 1.52 mm | - | 206 W/m² | - |
| 1777653861 | 5° C | 93% | 1012.6 hPa | 1.52 mm | - | 299 W/m² | - |
| 1777653429 | 5.56° C | 94% | 1012.5 hPa | 1.52 mm | - | 139 W/m² | - |
| 1777653135 | 5.56° C | 94% | 1012.8 hPa | 1.52 mm | - | 208 W/m² | - |
| 1777652829 | 5° C | 95% | 1012.7 hPa | 1.52 mm | - | 201 W/m² | - |
* Rain latest hour (hover to see other rain measurements)
** Current wind speed in m/s (hover to see current wind gust speed)